SWA1267 KFLL-KBNA

Flight info

Callsign SWA1267
Flight time 2h 5m
Altitude 36000
Route HROCK2 KPASA Q118 THRSR SWFFT3
Aircraft B38M/M-SDE1FGHILORVWXY/HB1

Departure

Time 2026-05-05 00:54
Airport Fort Lauderdale Hollywood International Airport (KFLL)

Arrival

Time 2026-05-05 03:00
Airport Nashville International Airport (KBNA)
Time Latitude Longitude Altitude Speed Heading
2026-05-05 00:27 26.07333 -80.13786 17 ft 0 kts 246°
2026-05-05 00:42 26.07339 -80.13773 18 ft 2 kts 257°
2026-05-05 00:42 26.07339 -80.13760 17 ft 2 kts 138°
2026-05-05 00:43 26.07340 -80.13762 17 ft 2 kts 159°
2026-05-05 00:43 26.07346 -80.13766 17 ft 0 kts 323°
2026-05-05 00:43 26.07338 -80.13756 17 ft 2 kts 282°
2026-05-05 00:43 26.07336 -80.13738 18 ft 2 kts 277°
2026-05-05 00:44 26.07336 -80.13735 19 ft 0 kts 282°
2026-05-05 00:44 26.07337 -80.13738 18 ft 1 kts 282°
2026-05-05 00:45 26.07337 -80.13741 18 ft 0 kts 282°
2026-05-05 00:48 26.07339 -80.13743 18 ft 1 kts 302°
2026-05-05 00:49 26.07363 -80.13739 17 ft 8 kts 14°
2026-05-05 00:49 26.07452 -80.13732 17 ft 13 kts
2026-05-05 00:49 26.07509 -80.13749 17 ft 7 kts 309°
2026-05-05 00:49 26.07518 -80.13805 17 ft 11 kts 276°
2026-05-05 00:50 26.07542 -80.13940 17 ft 24 kts 282°
2026-05-05 00:50 26.07557 -80.14168 18 ft 34 kts 271°
2026-05-05 00:50 26.07559 -80.14458 18 ft 41 kts 269°
2026-05-05 00:50 26.07560 -80.14796 18 ft 46 kts 270°
2026-05-05 00:51 26.07562 -80.15176 17 ft 52 kts 270°
2026-05-05 00:51 26.07565 -80.15591 17 ft 54 kts 271°
2026-05-05 00:51 26.07565 -80.16014 17 ft 55 kts 270°
2026-05-05 00:51 26.07567 -80.16380 18 ft 34 kts 270°
2026-05-05 00:52 26.07583 -80.16536 19 ft 13 kts 290°
2026-05-05 00:52 26.07588 -80.16616 17 ft 7 kts 300°
2026-05-05 00:52 26.07592 -80.16621 18 ft 0 kts 302°
2026-05-05 00:53 26.07599 -80.16628 18 ft 6 kts 321°
2026-05-05 00:53 26.07678 -80.16635 19 ft 9 kts 21°
2026-05-05 00:53 26.07700 -80.16593 19 ft 8 kts 84°
2026-05-05 00:53 26.07696 -80.16240 21 ft 92 kts 90°
2026-05-05 00:54 26.07658 -80.15233 49 ft 162 kts 93°
2026-05-05 00:54 26.07688 -80.13822 458 ft 196 kts 85°
2026-05-05 00:54 26.07786 -80.12377 1383 ft 195 kts 85°
2026-05-05 00:54 26.07829 -80.10823 2005 ft 189 kts 88°
2026-05-05 00:55 26.08066 -80.09477 3135 ft 173 kts 70°
2026-05-05 00:55 26.08477 -80.08288 4178 ft 161 kts 70°
2026-05-05 00:55 26.09090 -80.07216 4693 ft 179 kts 34°
2026-05-05 00:55 26.10266 -80.06613 5227 ft 196 kts 21°
2026-05-05 00:56 26.11615 -80.06089 5749 ft 215 kts 18°
2026-05-05 00:56 26.13093 -80.05512 6293 ft 235 kts 18°
2026-05-05 00:56 26.14698 -80.04892 6828 ft 254 kts 11°
2026-05-05 00:56 26.16482 -80.04971 7327 ft 267 kts 343°
2026-05-05 00:57 26.18289 -80.05626 7995 ft 277 kts 337°
2026-05-05 00:57 26.20119 -80.06385 8817 ft 284 kts 335°
2026-05-05 00:57 26.21842 -80.07436 9669 ft 283 kts 315°
2026-05-05 00:57 26.23045 -80.09155 10435 ft 285 kts 293°
2026-05-05 00:58 26.23833 -80.11226 10976 ft 299 kts 289°
2026-05-05 00:58 26.24595 -80.13451 11433 ft 316 kts 289°
2026-05-05 00:58 26.25388 -80.15754 11952 ft 328 kts 288°
2026-05-05 00:58 26.26058 -80.18202 12674 ft 333 kts 285°
2026-05-05 00:59 26.26734 -80.20691 13433 ft 337 kts 285°
2026-05-05 00:59 26.27412 -80.23207 14163 ft 341 kts 285°
2026-05-05 00:59 26.28085 -80.25750 14863 ft 343 kts 285°
2026-05-05 00:59 26.28761 -80.28309 15588 ft 345 kts 285°
2026-05-05 01:00 26.29434 -80.30834 15835 ft 331 kts 285°
2026-05-05 01:00 26.30071 -80.33226 15800 ft 315 kts 285°
2026-05-05 01:00 26.30680 -80.35529 15766 ft 307 kts 285°
2026-05-05 01:00 26.31291 -80.37843 15773 ft 319 kts 285°
2026-05-05 01:01 26.31937 -80.40286 16155 ft 336 kts 285°
2026-05-05 01:01 26.32599 -80.42779 16738 ft 343 kts 285°
2026-05-05 01:01 26.33280 -80.45347 17388 ft 348 kts 285°
2026-05-05 01:01 26.33967 -80.47950 18070 ft 351 kts 285°
2026-05-05 01:02 26.34658 -80.50570 18686 ft 354 kts 285°
2026-05-05 01:02 26.35355 -80.53212 19272 ft 356 kts 285°
2026-05-05 01:02 26.36056 -80.55869 19878 ft 358 kts 285°
2026-05-05 01:02 26.36758 -80.58534 20486 ft 360 kts 285°
2026-05-05 01:03 26.37464 -80.61217 21085 ft 362 kts 285°
2026-05-05 01:03 26.38174 -80.63916 21686 ft 364 kts 285°
2026-05-05 01:03 26.38887 -80.66631 22272 ft 366 kts 285°
2026-05-05 01:03 26.39638 -80.69353 22867 ft 369 kts 289°
2026-05-05 01:04 26.40743 -80.71950 23438 ft 374 kts 297°
2026-05-05 01:04 26.44041 -80.76523 24399 ft 383 kts 309°
2026-05-05 01:04 26.45832 -80.78683 24869 ft 386 kts 309°
2026-05-05 01:05 26.47656 -80.80892 25353 ft 388 kts 309°
2026-05-05 01:05 26.49487 -80.83111 25841 ft 390 kts 309°
2026-05-05 01:05 26.51413 -80.85261 26314 ft 395 kts 315°
2026-05-05 01:05 26.53555 -80.87202 26783 ft 398 kts 316°
2026-05-05 01:06 26.55709 -80.89152 27237 ft 400 kts 316°
2026-05-05 01:06 26.57868 -80.91120 27687 ft 402 kts 317°
2026-05-05 01:06 26.60039 -80.93095 28216 ft 403 kts 316°
2026-05-05 01:06 26.62216 -80.95072 28673 ft 404 kts 316°
2026-05-05 01:07 26.64401 -80.97059 29135 ft 406 kts 316°
2026-05-05 01:07 26.66550 -80.99014 29823 ft 402 kts 316°
2026-05-05 01:07 26.68707 -81.00978 30438 ft 398 kts 316°
2026-05-05 01:07 26.70844 -81.02926 30991 ft 395 kts 316°
2026-05-05 01:08 26.72969 -81.04864 31513 ft 393 kts 316°
2026-05-05 01:08 26.75083 -81.06792 32032 ft 391 kts 316°
2026-05-05 01:08 26.77185 -81.08710 32531 ft 389 kts 316°
2026-05-05 01:08 26.79277 -81.10619 33003 ft 387 kts 317°
2026-05-05 01:09 26.81361 -81.12523 33507 ft 386 kts 317°
2026-05-05 01:09 26.83439 -81.14421 33981 ft 384 kts 317°
2026-05-05 01:09 26.85504 -81.16310 34395 ft 383 kts 316°
2026-05-05 01:09 26.87560 -81.18190 34808 ft 381 kts 316°
2026-05-05 01:10 26.89581 -81.20040 35216 ft 380 kts 316°
2026-05-05 01:10 26.91622 -81.21909 35623 ft 379 kts 316°
2026-05-05 01:10 26.93666 -81.23782 35932 ft 380 kts 316°
2026-05-05 01:10 26.95724 -81.25670 36003 ft 386 kts 316°
2026-05-05 01:11 26.99874 -81.29471 36019 ft 384 kts 317°
2026-05-05 01:11 27.04007 -81.33228 36015 ft 384 kts 319°
2026-05-05 01:12 27.08628 -81.36309 36025 ft 387 kts 325°
2026-05-05 01:12 27.13282 -81.39274 36026 ft 387 kts 324°
2026-05-05 01:13 27.17968 -81.42246 36024 ft 387 kts 325°
2026-05-05 01:13 27.22656 -81.45229 36029 ft 389 kts 324°
2026-05-05 01:14 27.27353 -81.48218 36031 ft 388 kts 324°
2026-05-05 01:14 27.32021 -81.51191 36031 ft 388 kts 324°
2026-05-05 01:15 27.36956 -81.53745 36036 ft 392 kts 331°
2026-05-05 01:15 27.42014 -81.56055 36035 ft 392 kts 331°
2026-05-05 01:16 27.47070 -81.58357 36039 ft 392 kts 331°
2026-05-05 01:16 27.52093 -81.60649 36039 ft 392 kts 331°
2026-05-05 01:17 27.57152 -81.62959 36038 ft 392 kts 331°
2026-05-05 01:17 27.62208 -81.65269 36045 ft 392 kts 331°
2026-05-05 01:18 27.67239 -81.67568 36050 ft 388 kts 331°
2026-05-05 01:18 27.72204 -81.69846 36055 ft 388 kts 331°
2026-05-05 01:19 27.77204 -81.72137 36059 ft 388 kts 331°
2026-05-05 01:19 27.82200 -81.74430 36102 ft 388 kts 331°
2026-05-05 01:20 27.87218 -81.76735 36078 ft 389 kts 331°
2026-05-05 01:20 27.92233 -81.79040 36078 ft 389 kts 331°
2026-05-05 01:21 27.97247 -81.81348 36080 ft 389 kts 331°
2026-05-05 01:21 28.02234 -81.83645 36089 ft 389 kts 331°
2026-05-05 01:22 28.07252 -81.85960 36087 ft 389 kts 331°
2026-05-05 01:22 28.12272 -81.88277 36083 ft 390 kts 331°
2026-05-05 01:23 28.17253 -81.90675 36068 ft 386 kts 326°
2026-05-05 01:23 28.21712 -81.93991 36078 ft 383 kts 320°
2026-05-05 01:24 28.26063 -81.97418 36085 ft 383 kts 320°
2026-05-05 01:24 28.30437 -82.00884 36086 ft 383 kts 320°
2026-05-05 01:25 28.34809 -82.04345 36084 ft 383 kts 320°
2026-05-05 01:25 28.39183 -82.07814 36077 ft 383 kts 320°
2026-05-05 01:26 28.43554 -82.11283 36109 ft 383 kts 320°
2026-05-05 01:26 28.47928 -82.14758 36064 ft 384 kts 320°
2026-05-05 01:27 28.52269 -82.18211 36057 ft 384 kts 320°
2026-05-05 01:27 28.56644 -82.21697 36058 ft 384 kts 320°
2026-05-05 01:28 28.61014 -82.25181 36067 ft 384 kts 320°
2026-05-05 01:28 28.65382 -82.28667 36072 ft 383 kts 320°
2026-05-05 01:29 28.69747 -82.32154 36075 ft 383 kts 319°
2026-05-05 01:29 28.74084 -82.35623 36076 ft 383 kts 319°
2026-05-05 01:30 28.78460 -82.39126 36079 ft 385 kts 319°
2026-05-05 01:30 28.82832 -82.42629 36068 ft 383 kts 320°
2026-05-05 01:31 28.87191 -82.46127 36050 ft 383 kts 320°
2026-05-05 01:31 28.91551 -82.49629 36052 ft 383 kts 320°
2026-05-05 01:32 28.95907 -82.53131 36075 ft 383 kts 320°
2026-05-05 01:32 29.00234 -82.56613 36067 ft 383 kts 320°
2026-05-05 01:33 29.04588 -82.60120 36108 ft 383 kts 320°
2026-05-05 01:33 29.08958 -82.63645 36067 ft 384 kts 320°
2026-05-05 01:34 29.13323 -82.67169 36062 ft 384 kts 320°
2026-05-05 01:34 29.17688 -82.70698 36055 ft 384 kts 320°
2026-05-05 01:35 29.22050 -82.74226 36054 ft 384 kts 320°
2026-05-05 01:35 29.26411 -82.77759 36053 ft 384 kts 320°
2026-05-05 01:36 29.30707 -82.81238 36048 ft 379 kts 320°
2026-05-05 01:36 29.35000 -82.84727 36097 ft 378 kts 320°
2026-05-05 01:37 29.39309 -82.88226 36052 ft 379 kts 320°
2026-05-05 01:37 29.43615 -82.91730 36045 ft 380 kts 320°
2026-05-05 01:38 29.47922 -82.95236 36053 ft 380 kts 320°
2026-05-05 01:38 29.51567 -82.98055 36066 ft 383 kts 326°
2026-05-05 01:39 29.57276 -83.00931 36055 ft 386 kts 331°
2026-05-05 01:39 29.62230 -83.03302 36057 ft 386 kts 331°
2026-05-05 01:40 29.67197 -83.05666 36065 ft 388 kts 331°
2026-05-05 01:40 29.72180 -83.08045 36063 ft 388 kts 331°
2026-05-05 01:41 29.76321 -83.10023 36065 ft 388 kts 331°
2026-05-05 01:41 29.82112 -83.12792 36064 ft 388 kts 331°
2026-05-05 01:42 29.86286 -83.14790 36062 ft 387 kts 331°
2026-05-05 01:42 29.91213 -83.17150 36061 ft 383 kts 331°
2026-05-05 01:43 29.96132 -83.19513 36062 ft 383 kts 331°
2026-05-05 01:43 30.01053 -83.21875 36065 ft 383 kts 331°
2026-05-05 01:44 30.05975 -83.24242 36066 ft 383 kts 331°
2026-05-05 01:44 30.10901 -83.26613 36066 ft 384 kts 331°
2026-05-05 01:45 30.15792 -83.28969 36067 ft 384 kts 331°
2026-05-05 01:45 30.20721 -83.31347 36064 ft 384 kts 331°
2026-05-05 01:46 30.25652 -83.33727 36072 ft 384 kts 331°
2026-05-05 01:46 30.30580 -83.36106 36075 ft 384 kts 331°
2026-05-05 01:47 30.35477 -83.38474 36073 ft 384 kts 331°
2026-05-05 01:47 30.40405 -83.40858 36074 ft 384 kts 331°
2026-05-05 01:48 30.45337 -83.43248 36076 ft 384 kts 331°
2026-05-05 01:48 30.50263 -83.45637 36078 ft 384 kts 331°
2026-05-05 01:49 30.55189 -83.48029 36077 ft 384 kts 331°
2026-05-05 01:49 30.60118 -83.50425 36075 ft 384 kts 331°
2026-05-05 01:50 30.65013 -83.52806 36071 ft 384 kts 331°
2026-05-05 01:50 30.69910 -83.55189 36061 ft 378 kts 331°
2026-05-05 01:51 30.74762 -83.57559 36063 ft 378 kts 331°
2026-05-05 01:51 30.79618 -83.59928 36072 ft 378 kts 331°
2026-05-05 01:52 30.84490 -83.62310 36075 ft 380 kts 331°
2026-05-05 01:52 30.89334 -83.64680 36078 ft 380 kts 331°
2026-05-05 01:53 30.94207 -83.67067 36070 ft 380 kts 331°
2026-05-05 01:53 30.99081 -83.69457 36068 ft 380 kts 331°
2026-05-05 01:54 31.03957 -83.71851 36067 ft 380 kts 331°
2026-05-05 01:54 31.08798 -83.74230 36066 ft 380 kts 331°
2026-05-05 01:55 31.13677 -83.76631 36067 ft 380 kts 331°
2026-05-05 01:55 31.18560 -83.79035 36070 ft 381 kts 331°
2026-05-05 01:56 31.23433 -83.81439 36065 ft 380 kts 331°
2026-05-05 01:56 31.28311 -83.83847 36064 ft 381 kts 331°
2026-05-05 01:57 31.29928 -83.84646 36066 ft 380 kts 331°
2026-05-05 01:57 31.38561 -83.88916 36100 ft 381 kts 331°
2026-05-05 01:58 31.43450 -83.91338 36061 ft 381 kts 332°
2026-05-05 01:58 31.48302 -83.93742 36063 ft 378 kts 331°
2026-05-05 01:59 31.53236 -83.95897 36073 ft 383 kts 339°
2026-05-05 01:59 31.58459 -83.97087 36064 ft 385 kts 341°
2026-05-05 02:00 31.63710 -83.98266 36072 ft 384 kts 341°
2026-05-05 02:00 31.68967 -83.99428 36070 ft 384 kts 341°
2026-05-05 02:01 31.74225 -84.00600 36071 ft 385 kts 341°
2026-05-05 02:01 31.79484 -84.01770 36071 ft 385 kts 341°
2026-05-05 02:02 31.84711 -84.02936 36070 ft 385 kts 341°
2026-05-05 02:02 31.89969 -84.04110 36070 ft 385 kts 341°
2026-05-05 02:03 31.95236 -84.05287 36055 ft 387 kts 341°
2026-05-05 02:03 32.00517 -84.06468 36056 ft 386 kts 341°
2026-05-05 02:04 32.05798 -84.07651 36054 ft 386 kts 341°
2026-05-05 02:04 32.11082 -84.08836 36053 ft 386 kts 341°
2026-05-05 02:05 32.16332 -84.10015 36053 ft 387 kts 341°
2026-05-05 02:05 32.21615 -84.11203 36092 ft 387 kts 341°
2026-05-05 02:06 32.26906 -84.12394 36051 ft 387 kts 341°
2026-05-05 02:06 32.32202 -84.13587 36051 ft 387 kts 341°
2026-05-05 02:07 32.37494 -84.14781 36056 ft 387 kts 341°
2026-05-05 02:07 32.42791 -84.15977 36051 ft 387 kts 341°
2026-05-05 02:08 32.48049 -84.17166 36051 ft 387 kts 341°
2026-05-05 02:08 32.53371 -84.18373 36054 ft 390 kts 342°
2026-05-05 02:09 32.58705 -84.19579 36047 ft 390 kts 341°
2026-05-05 02:09 32.64033 -84.20790 36044 ft 390 kts 342°
2026-05-05 02:10 32.69356 -84.21998 36064 ft 390 kts 341°
2026-05-05 02:10 32.74682 -84.23211 36071 ft 390 kts 341°
2026-05-05 02:11 32.80040 -84.24433 36083 ft 393 kts 342°
2026-05-05 02:11 32.85407 -84.25654 36089 ft 393 kts 342°
2026-05-05 02:12 32.93422 -84.27486 36090 ft 393 kts 342°
2026-05-05 02:13 32.98788 -84.28713 36089 ft 393 kts 342°
2026-05-05 02:13 33.04108 -84.29929 36095 ft 388 kts 342°
2026-05-05 02:14 33.09424 -84.31152 36064 ft 388 kts 342°
2026-05-05 02:14 33.13835 -84.32163 36071 ft 388 kts 342°
2026-05-05 02:15 33.19999 -84.33581 36082 ft 388 kts 342°
2026-05-05 02:15 33.25303 -84.34801 36091 ft 388 kts 342°
2026-05-05 02:16 33.30607 -84.36024 36101 ft 388 kts 342°
2026-05-05 02:16 33.35021 -84.37042 36103 ft 389 kts 342°
2026-05-05 02:17 33.40331 -84.38269 36058 ft 389 kts 342°
2026-05-05 02:17 33.45641 -84.39497 36055 ft 389 kts 342°
2026-05-05 02:18 33.51809 -84.40925 36052 ft 389 kts 342°
2026-05-05 02:18 33.56224 -84.41949 36087 ft 389 kts 342°
2026-05-05 02:19 33.61575 -84.43192 36062 ft 391 kts 342°
2026-05-05 02:19 33.67480 -84.45634 36065 ft 386 kts 333°
2026-05-05 02:20 33.71675 -84.47586 36060 ft 386 kts 333°
2026-05-05 02:20 33.76654 -84.49914 36054 ft 386 kts 333°
2026-05-05 02:21 33.81661 -84.52257 36054 ft 386 kts 333°
2026-05-05 02:21 33.86694 -84.54617 36030 ft 391 kts 334°
2026-05-05 02:22 33.91752 -84.56988 36027 ft 390 kts 334°
2026-05-05 02:22 33.96794 -84.59360 36053 ft 389 kts 333°
2026-05-05 02:23 34.01630 -84.62230 36058 ft 387 kts 329°
2026-05-05 02:23 34.06414 -84.65129 36059 ft 387 kts 329°
2026-05-05 02:24 34.11212 -84.68060 36056 ft 385 kts 329°
2026-05-05 02:24 34.15990 -84.70976 36039 ft 384 kts 329°
2026-05-05 02:25 34.20758 -84.73891 36037 ft 384 kts 329°
2026-05-05 02:25 34.25523 -84.76808 36033 ft 384 kts 329°
2026-05-05 02:26 34.30260 -84.79712 36026 ft 384 kts 329°
2026-05-05 02:26 34.35026 -84.82637 36021 ft 384 kts 329°
2026-05-05 02:27 34.39802 -84.85573 36011 ft 387 kts 329°
2026-05-05 02:27 34.44601 -84.88525 36011 ft 387 kts 329°
2026-05-05 02:28 34.49398 -84.91480 36029 ft 387 kts 329°
2026-05-05 02:28 34.54161 -84.94418 36029 ft 387 kts 329°
2026-05-05 02:29 34.58956 -84.97380 36020 ft 387 kts 329°
2026-05-05 02:29 34.63745 -85.00343 36055 ft 387 kts 329°
2026-05-05 02:30 34.68379 -85.03729 36035 ft 389 kts 324°
2026-05-05 02:30 34.72922 -85.07223 36021 ft 383 kts 324°
2026-05-05 02:31 34.77395 -85.10689 36008 ft 375 kts 324°
2026-05-05 02:31 34.81706 -85.14026 35732 ft 366 kts 324°
2026-05-05 02:31 34.83851 -85.15689 35258 ft 365 kts 324°
2026-05-05 02:32 34.85995 -85.17353 34824 ft 366 kts 324°
2026-05-05 02:32 34.88154 -85.19031 34379 ft 371 kts 324°
2026-05-05 02:32 34.90340 -85.20728 33934 ft 375 kts 324°
2026-05-05 02:32 34.92560 -85.22453 33425 ft 382 kts 324°
2026-05-05 02:33 34.94813 -85.24204 32959 ft 386 kts 324°
2026-05-05 02:33 34.97088 -85.25974 32453 ft 389 kts 324°
2026-05-05 02:33 34.99377 -85.27757 31940 ft 392 kts 324°
2026-05-05 02:33 35.01690 -85.29560 31420 ft 396 kts 324°
2026-05-05 02:34 35.03992 -85.31354 30872 ft 400 kts 324°
2026-05-05 02:34 35.06347 -85.33192 30332 ft 404 kts 324°
2026-05-05 02:34 35.08724 -85.35047 29746 ft 407 kts 324°
2026-05-05 02:34 35.11115 -85.36915 29152 ft 409 kts 324°
2026-05-05 02:35 35.13506 -85.38784 28580 ft 406 kts 324°
2026-05-05 02:35 35.15840 -85.40697 28079 ft 400 kts 318°
2026-05-05 02:35 35.17808 -85.43045 27940 ft 395 kts 311°
2026-05-05 02:35 35.19704 -85.45467 27484 ft 393 kts 311°
2026-05-05 02:36 35.21587 -85.47882 26842 ft 391 kts 311°
2026-05-05 02:36 35.23465 -85.50275 26206 ft 389 kts 311°
2026-05-05 02:36 35.25308 -85.52615 25819 ft 387 kts 311°
2026-05-05 02:36 35.27170 -85.54991 25394 ft 386 kts 311°
2026-05-05 02:37 35.29020 -85.57356 24983 ft 384 kts 311°
2026-05-05 02:37 35.30864 -85.59713 24558 ft 383 kts 311°
2026-05-05 02:37 35.32702 -85.62062 24142 ft 381 kts 311°
2026-05-05 02:37 35.34530 -85.64401 23721 ft 379 kts 311°
2026-05-05 02:38 35.36351 -85.66732 23278 ft 378 kts 311°
2026-05-05 02:38 35.38163 -85.69054 22857 ft 376 kts 311°
2026-05-05 02:38 35.39967 -85.71368 22445 ft 375 kts 311°
2026-05-05 02:38 35.41763 -85.73671 22030 ft 373 kts 311°
2026-05-05 02:39 35.43528 -85.75938 21635 ft 371 kts 311°
2026-05-05 02:39 35.45306 -85.78222 21223 ft 369 kts 311°
2026-05-05 02:39 35.47071 -85.80492 20828 ft 367 kts 311°
2026-05-05 02:39 35.48829 -85.82753 20423 ft 365 kts 311°
2026-05-05 02:40 35.50578 -85.85005 20024 ft 363 kts 311°
2026-05-05 02:40 35.52317 -85.87245 19629 ft 362 kts 311°
2026-05-05 02:40 35.54045 -85.89473 19234 ft 360 kts 311°
2026-05-05 02:40 35.55734 -85.91653 18994 ft 354 kts 311°
2026-05-05 02:41 35.57408 -85.93874 18711 ft 353 kts 310°
2026-05-05 02:41 35.59050 -85.96107 18199 ft 351 kts 310°
2026-05-05 02:41 35.60687 -85.98312 17864 ft 349 kts 310°
2026-05-05 02:41 35.62335 -86.00506 17537 ft 349 kts 310°
2026-05-05 02:42 35.63974 -86.02694 17229 ft 348 kts 310°
2026-05-05 02:42 35.65605 -86.04884 16903 ft 347 kts 310°
2026-05-05 02:42 35.67228 -86.07065 16586 ft 345 kts 310°
2026-05-05 02:42 35.68826 -86.09208 16284 ft 344 kts 310°
2026-05-05 02:43 35.70439 -86.11369 15979 ft 342 kts 310°
2026-05-05 02:43 35.71917 -86.13630 15658 ft 338 kts 304°
2026-05-05 02:43 35.73309 -86.15956 15348 ft 337 kts 304°
2026-05-05 02:43 35.74700 -86.18267 15036 ft 335 kts 304°
2026-05-05 02:44 35.76085 -86.20567 14720 ft 334 kts 304°
2026-05-05 02:44 35.77460 -86.22858 14408 ft 332 kts 304°
2026-05-05 02:44 35.78829 -86.25143 14110 ft 331 kts 304°
2026-05-05 02:44 35.80191 -86.27416 13803 ft 329 kts 304°
2026-05-05 02:45 35.81532 -86.29654 13480 ft 328 kts 304°
2026-05-05 02:45 35.82883 -86.31912 13175 ft 327 kts 303°
2026-05-05 02:45 35.84231 -86.34165 12881 ft 326 kts 303°
2026-05-05 02:45 35.85574 -86.36411 12569 ft 325 kts 303°
2026-05-05 02:46 35.86887 -86.38609 12249 ft 324 kts 303°
2026-05-05 02:46 35.88220 -86.40842 11955 ft 323 kts 303°
2026-05-05 02:46 35.89543 -86.43057 11658 ft 317 kts 303°
2026-05-05 02:46 35.90833 -86.45219 11372 ft 308 kts 303°
2026-05-05 02:47 35.92087 -86.47325 11076 ft 301 kts 303°
2026-05-05 02:47 35.93305 -86.49370 10808 ft 290 kts 303°
2026-05-05 02:47 35.94469 -86.51326 10549 ft 285 kts 303°
2026-05-05 02:47 35.95632 -86.53284 10299 ft 280 kts 303°
2026-05-05 02:48 35.96777 -86.55210 10047 ft 276 kts 303°
2026-05-05 02:48 35.97904 -86.57107 9795 ft 272 kts 302°
2026-05-05 02:48 35.99098 -86.58910 9500 ft 273 kts 316°
2026-05-05 02:48 36.00849 -86.59837 9262 ft 283 kts 351°
2026-05-05 02:49 36.02803 -86.59507 9010 ft 286 kts 14°
2026-05-05 02:49 36.04655 -86.58682 8729 ft 278 kts 19°
2026-05-05 02:49 36.06420 -86.57857 8464 ft 267 kts 16°
2026-05-05 02:49 36.08146 -86.57167 8228 ft 262 kts 14°
2026-05-05 02:50 36.09886 -86.56505 7973 ft 262 kts 14°
2026-05-05 02:50 36.11062 -86.56041 7804 ft 263 kts 15°
2026-05-05 02:51 36.16860 -86.53698 6871 ft 247 kts 15°
2026-05-05 02:51 36.18477 -86.53048 6632 ft 240 kts 15°
2026-05-05 02:51 36.19983 -86.52439 6417 ft 217 kts 15°
2026-05-05 02:51 36.21341 -86.51890 6190 ft 202 kts 15°
2026-05-05 02:52 36.22663 -86.51360 5960 ft 197 kts 14°
2026-05-05 02:52 36.23943 -86.50787 5740 ft 193 kts 12°
2026-05-05 02:52 36.25238 -86.50722 5544 ft 186 kts 349°
2026-05-05 02:52 36.26460 -86.51087 5340 ft 176 kts 329°
2026-05-05 02:53 36.27485 -86.51805 5144 ft 161 kts 311°
2026-05-05 02:53 36.28255 -86.52739 4984 ft 151 kts 297°
2026-05-05 02:53 36.28811 -86.53789 4814 ft 146 kts 292°
2026-05-05 02:53 36.29187 -86.54905 4612 ft 138 kts 276°
2026-05-05 02:54 36.29387 -86.56062 4420 ft 134 kts 267°
2026-05-05 02:54 36.29418 -86.57202 4240 ft 132 kts 258°
2026-05-05 02:54 36.29297 -86.58306 4064 ft 127 kts 251°
2026-05-05 02:54 36.29036 -86.59349 3892 ft 127 kts 243°
2026-05-05 02:55 36.28650 -86.60306 3705 ft 123 kts 236°
2026-05-05 02:55 36.28154 -86.61160 3538 ft 123 kts 228°
2026-05-05 02:55 36.27565 -86.61895 3385 ft 123 kts 221°
2026-05-05 02:55 36.26868 -86.62525 3214 ft 125 kts 213°
2026-05-05 02:56 36.26097 -86.63007 3034 ft 122 kts 206°
2026-05-05 02:56 36.25288 -86.63341 2874 ft 124 kts 201°
2026-05-05 02:56 36.24486 -86.63654 2713 ft 119 kts 201°
2026-05-05 02:56 36.23681 -86.63970 2538 ft 121 kts 203°
2026-05-05 02:57 36.22864 -86.64293 2373 ft 125 kts 201°
2026-05-05 02:57 36.22049 -86.64614 2202 ft 122 kts 201°
2026-05-05 02:57 36.21241 -86.64930 2038 ft 122 kts 200°
2026-05-05 02:57 36.20441 -86.65241 1871 ft 121 kts 201°
2026-05-05 02:58 36.19637 -86.65557 1706 ft 124 kts 202°
2026-05-05 02:58 36.18815 -86.65890 1562 ft 124 kts 201°
2026-05-05 02:58 36.17960 -86.66221 1375 ft 133 kts 199°
2026-05-05 02:58 36.17068 -86.66571 1197 ft 136 kts 199°
2026-05-05 02:59 36.16137 -86.66937 1004 ft 140 kts 198°
2026-05-05 02:59 36.15209 -86.67299 808 ft 140 kts 198°
2026-05-05 02:59 36.14302 -86.67655 646 ft 144 kts 197°
2026-05-05 02:59 36.13433 -86.67998 572 ft 107 kts 198°
2026-05-05 03:00 36.12963 -86.68187 581 ft 42 kts 198°
2026-05-05 03:00 36.12750 -86.68270 580 ft 29 kts 198°
2026-05-05 03:00 36.12568 -86.68344 582 ft 27 kts 199°
2026-05-05 03:00 36.12399 -86.68413 585 ft 20 kts 207°
2026-05-05 03:01 36.12323 -86.68531 586 ft 17 kts 239°
2026-05-05 03:01 36.12239 -86.68626 588 ft 16 kts 200°
2026-05-05 03:01 36.12132 -86.68670 590 ft 16 kts 197°
2026-05-05 03:01 36.12022 -86.68709 591 ft 17 kts 197°
2026-05-05 03:02 36.11908 -86.68749 593 ft 17 kts 198°
2026-05-05 03:02 36.11810 -86.68759 595 ft 5 kts 138°
2026-05-05 03:02 36.11793 -86.68706 595 ft 9 kts 108°
2026-05-05 03:02 36.11769 -86.68608 595 ft 14 kts 107°
2026-05-05 03:03 36.11739 -86.68484 594 ft 12 kts 103°
2026-05-05 03:03 36.11769 -86.68434 594 ft 10 kts 30°
2026-05-05 03:03 36.11855 -86.68397 593 ft 17 kts 16°
2026-05-05 03:03 36.11990 -86.68350 591 ft 23 kts 16°
2026-05-05 03:04 36.12166 -86.68287 588 ft 29 kts 16°
2026-05-05 03:04 36.12378 -86.68209 584 ft 35 kts 15°
2026-05-05 03:04 36.12628 -86.68123 579 ft 40 kts 17°
2026-05-05 03:04 36.12892 -86.68025 579 ft 40 kts 16°
2026-05-05 03:05 36.13066 -86.67940 575 ft 8 kts 44°
2026-05-05 03:05 36.13071 -86.67910 577 ft 4 kts 99°
2026-05-05 03:05 36.13052 -86.67873 579 ft 7 kts 127°
2026-05-05 03:05 36.13014 -86.67821 575 ft 10 kts 133°
2026-05-05 03:06 36.12960 -86.67751 579 ft 13 kts 133°
2026-05-05 03:06 36.12893 -86.67661 579 ft 15 kts 134°
2026-05-05 03:06 36.12843 -86.67595 576 ft 9 kts 131°
2026-05-05 03:06 36.12796 -86.67534 579 ft 10 kts 134°
2026-05-05 03:07 36.12749 -86.67464 581 ft 11 kts 115°
2026-05-05 03:07 36.12773 -86.67371 578 ft 14 kts 48°
2026-05-05 03:07 36.12824 -86.67290 578 ft 5 kts 71°
2026-05-05 03:07 36.12826 -86.67284 578 ft 2 kts 69°
2026-05-05 03:08 36.12844 -86.67261 575 ft 7 kts 38°
2026-05-05 03:08 36.12884 -86.67206 574 ft 8 kts 73°
2026-05-05 03:08 36.12888 -86.67160 573 ft 4 kts 86°
2026-05-05 03:08 36.12889 -86.67134 571 ft 0 kts 85°